#timestamp,LO_Frequency,Hit 
1599256815.8,286047002.8,N
1599256835.7,286047000.2,N
1599256855.5,286047001.2,N
1599256875.3,286047002.4,N
1599256895.2,286046998.5,N
1599256915.0,286046999.9,N
1599256915.9,286046999.9,N
1599256935.7,286047000.5,N
1599256955.6,286047000.8,N
1599256975.4,286046998.4,N
1599256995.2,286047000.8,N
1599257015.1,286047000.6,N
1599257016.0,286047000.6,N
1599257035.8,286047001.2,N
1599257055.6,286047001.1,N
1599257075.5,286046998.8,N
1599257095.3,286046998.3,N
1599257115.1,286046996.5,N
1599257135.9,286046996.6,N
1599257155.7,286046997.0,N
1599257175.5,286046999.3,N
1599257195.4,286046997.0,N
1599257215.2,286046998.7,N
1599257235.0,286046998.1,N
1599257236.0,286046998.1,N
1599257255.8,286047001.1,N
1599257275.6,286046998.5,N
1599257295.5,286046998.9,N
1599257315.3,286046996.7,N
1599257335.1,286046999.6,N
1599257355.8,286046999.0,N
1599257375.7,286046999.4,N
1599257395.5,286046999.2,N
1599257415.3,286046998.4,N
1599257435.2,286046997.2,N
1599257455.0,286046996.8,N
1599257455.9,286046996.8,N
1599257475.7,286046996.6,N
1599257495.6,286046996.8,N
1599257515.4,286046997.1,N
1599257535.2,286046997.2,N
1599257555.1,286046997.3,N
1599257556.0,286046997.3,N
1599257575.8,286046996.5,N
1599257595.7,286046997.2,N
1599257615.5,286046999.4,N
1599257635.3,286046996.7,N
1599257655.1,286046997.1,N
1599257675.9,286046997.2,N
1599257695.7,286046999.5,N
1599257715.5,286046999.5,N
1599257735.4,286046996.5,N
1599257755.2,286046996.5,N
1599257775.0,286046998.4,N
1599257776.0,286046998.4,N
1599257795.8,286046996.6,N
1599257815.6,286046997.0,N
1599257835.4,286046997.8,N
1599257855.3,286046996.5,P
1599257875.1,286047000.4,N
1599257895.9,286046999.8,N
1599257915.7,286047002.3,N
1599257935.5,286047000.6,N
1599257955.4,286046999.8,N
1599257975.2,286047000.2,N
1599257995.0,286047002.4,N
1599257995.9,286047002.4,N
1599258015.8,286047002.7,N
1599258035.6,286047002.8,N
1599258055.4,286047000.0,N
1599258075.3,286047000.3,N
1599258095.1,286046999.7,N
1599258096.0,286046999.7,N
1599258115.8,286047002.7,N
1599258135.7,286047002.6,N
1599258155.5,286047001.9,N
1599258175.3,286047000.0,N
1599258195.2,286047000.2,N
1599258215.9,286046999.8,N
1599258235.7,286047002.3,N
1599258255.5,286047000.1,N
1599258275.4,286047002.0,N
1599258295.2,286047000.4,N
1599258315.0,286047000.5,N
1599258316.0,286047000.5,N
1599258335.8,286047000.6,N
1599258355.6,286046999.8,N
1599258375.5,286047002.0,N
1599258395.3,286047002.8,N
1599258415.1,286047001.7,N
1599258435.9,286047001.7,N
1599258455.7,286047001.8,N
1599258475.5,286047001.7,N
1599258495.4,286047001.3,N
1599258515.2,286047001.4,N
1599258535.0,286046999.9,N
1599258535.9,286046999.9,N
1599258555.8,286047001.8,N
1599258575.6,286047002.2,N
1599258595.4,286047002.3,N
1599258615.3,286047001.8,N
1599258635.1,286047002.1,N
1599258636.0,286047002.1,N
1599258655.8,286047000.0,N
1599258675.7,286047002.5,N
1599258695.5,286047002.6,N
1599258715.3,286047001.9,N
1599258735.2,286047002.6,N
1599258755.9,286047001.8,N
1599258775.7,286047001.4,N
1599258795.6,286047002.8,P
1599258815.4,286047002.1,P
1599258835.2,286047002.7,P
1599258855.1,286047000.0,N
1599258856.0,286047000.0,N
1599258875.8,286047000.9,N
1599258895.6,286047002.8,N
1599258915.5,286047002.7,N
1599258935.3,286047002.3,N
1599258955.1,286047001.6,N
1599258975.9,286047000.1,N
1599258995.7,286047002.4,N
1599259015.5,286047001.8,N
1599259035.4,286047002.8,N
1599259055.2,286047002.0,N
1599259075.0,286047002.0,N
1599259075.9,286047002.0,N
1599259095.8,286047001.8,N
1599259115.6,286047004.4,P
1599259135.5,286047000.1,N
1599259155.3,286046999.9,N
1599259175.1,286047000.9,N
1599259195.9,286047000.4,N
1599259215.7,286047000.3,N
1599259235.5,286047000.6,N
1599259255.3,286046999.9,N
1599259275.2,286046999.9,N
1599259295.0,286047002.4,N
1599259295.9,286047002.4,N
1599259315.8,286047000.6,N
1599259335.6,286047000.3,N
1599259355.4,286047000.3,N
1599259375.3,286046999.9,N
1599259395.1,286047000.2,N
1599259396.0,286047000.2,N
1599259415.8,286047000.0,N
1599259435.7,286047002.3,N
1599259455.5,286047000.3,N
1599259475.3,286047000.5,N
1599259495.2,286047000.2,N
1599259515.9,286047000.9,N
1599259535.7,286047002.3,N
1599259555.6,286047002.0,N
1599259575.4,286047000.1,N
1599259595.2,286047002.4,N
1599259615.1,286047002.1,N
1599259616.0,286047002.1,N
1599259635.8,286046999.8,N
1599259655.6,286047002.1,N
1599259675.5,286046999.7,N
1599259695.3,286047002.2,N
1599259715.1,286047000.3,N
1599259735.9,286047001.6,N
1599259755.7,286047002.5,N
1599259775.5,286047001.5,N
1599259795.4,286047002.3,N
1599259815.2,286047002.4,N
1599259835.0,286047001.8,N
1599259835.9,286047001.8,N
1599259855.8,286047001.9,N
1599259875.6,286047002.1,N
1599259895.4,286047001.6,N
1599259915.3,286047002.0,N
1599259935.1,286047001.7,N
1599259936.0,286047001.7,N
1599259955.8,286047004.0,P
1599259975.7,286047001.2,N
1599259995.5,286047001.2,N
1599260015.3,286047000.9,N
1599260035.2,286047000.9,N
1599260055.0,286047000.5,N
1599260055.9,286047000.5,N
1599260075.7,286047000.1,N
1599260095.6,286047000.8,N
1599260115.4,286047000.8,N
1599260135.2,286047000.7,N
1599260155.1,286047000.7,N
1599260156.0,286047000.7,N
1599260175.8,286047000.7,N
1599260195.6,286047001.0,N
1599260215.5,286047000.0,N
1599260235.3,286047002.4,N
1599260255.1,286047000.4,N
1599260275.9,286047000.3,N
1599260295.7,286047002.4,N
1599260315.5,286047000.0,N
1599260335.4,286047002.3,N
1599260355.2,286047000.9,N
1599260375.0,286047000.1,N
1599260375.9,286047000.1,N
1599260395.8,286047001.0,N
